GFSGBSN_prec_radar_237.txt.gz
Reflectivity
9 1 8 5 -2 1 12 -18 -18 -19 -20 -20 -20 -20 -20 -20 -20 -20 -20 -20 -20 -20 -20 -20 -20 -20 -20 -20 -20 -20 -20 -20 -20 -20 -20 -20 -20 -20 -20 -20 -20 -20 -20 -20 -20 -20 -20
3 18 -16 -5 9 1 -0 11 -20 -20 -20 -20 -20 -20 -20 -20 -20 -20 -20 -20 -20 -20 -20 -20 -20 -20 -20 -20 -20 -20 -20 -20 -20 -20 -20 -20 -20 -20 -20 -20 -20 -20 -20 -20 -20 -20 -20
-2 -2 13 7 11 -16 1 -8 6 -20 -20 -20 -20 -20 -20 -20 -20 -20 -20 -20 -20 -20 -20 -20 -20 -20 -20 -20 -20 -20 -20 -20 -20 -20 -20 -20 -20 -20 -20 -20 -20 -20 -20 -20 -20 -20 -20
-20 -17 -6 12 13 6 3 -0 -9 -16 -20 -20 -20 -20 -20 -20 -20 -20 -20 -20 -20 -20 -20 -20 -20 -20 -20 -20 -20 -20 -20 -20 -20 -20 -20 -20 -20 -20 -20 -20 -20 -20 -20 -20 -20 -20 -20
-20 -20 -20 3 -4 12 8 5 -19 0 -14 -20 -20 -20 -20 -20 -20 -20 -20 -20 -20 -20 -20 -20 -20 -20 -20 -20 -20 -20 -20 -20 -20 -20 -20 -20 -20 -20 -20 -20 -20 -20 -20 -20 -20 -20 -20
-16 -20 -20 -20 1 -20 15 -4 -20 -16 8 -20 -20 -20 -20 -20 -20 -20 -20 -20 -20 -20 -20 -20 -20 -20 -20 -20 -20 -20 -20 -20 -20 -20 -20 -20 -20 -20 -20 -20 -20 -20 -20 -20 -20 -20 -20
-20 5 -9 -20 -20 -19 -1 18 5 -20 -13 -1 -12 -20 -20 -20 -20 -20 -20 -20 -20 -20 -20 -20 -20 -20 -20 -20 -20 -20 -20 -20 -20 -20 -20 -20 -20 -20 -20 -20 -20 -20 -20 -20 -20 -20 -20
-20 -20 -17 -18 -20 -17 -19 6 6 9 -15 8 0 -6 -20 -20 -20 -20 -20 -20 -20 -20 -20 -20 -20 -20 -20 -20 -20 -20 -20 -20 -20 -20 -20 -20 -20 -20 -20 -20 -20 -20 -20 -20 -20 -20 -20
-20 -20 -20 -7 -6 -20 -20 -20 9 17 8 3 1 19 -20 -20 -20 -20 -20 -20 -20 -20 -20 -20 -20 -20 -20 -20 -20 -20 -20 -20 -20 -20 -20 -20 -19 -20 -20 -20 -20 -20 -20 -20 -20 -20 -20
-19 -20 -20 -20 8 -20 -20 -2 -18 24 24 16 18 21 -14 -20 -20 -20 -20 -20 -20 -20 -20 -20 -20 -20 -20 -20 -20 -20 -20 -20 -20 -20 -20 -20 -20 -20 -20 -20 -20 -20 -20 -20 -20 -20 -20
-20 -20 -20 -20 9 -20 -20 -4 -20 -19 37 31 23 23 7 -20 -20 -20 -20 -6 -20 -20 -20 -20 -20 -20 -20 -20 -20 -20 -20 -20 -20 -20 -20 -20 -20 -20 -20 -20 -20 -20 -20 -20 -20 -20 -20
-20 -20 -20 -11 -1 -15 -2 -14 6 -20 22 29 23 25 18 -1 -1 -16 -8 3 -11 -13 -20 -20 -20 -20 -20 -20 -20 -20 -20 -20 -20 -20 -20 -20 -20 -20 -20 -20 -20 -20 -20 -20 -20 -20 -20
-20 -20 -20 1 -20 -20 -20 6 -4 -11 -20 34 32 37 30 20 4 2 6 8 -4 -20 -20 -20 -20 -20 -20 -20 -20 -20 -20 -20 -20 -20 -20 -20 -20 -20 -20 -20 -20 -20 -20 -20 -20 -20 -20
-20 -20 9 3 -20 -20 -20 -8 -9 9 6 -1 31 35 34 10 12 16 6 13 1 -14 -20 -20 -20 -20 -20 -20 -20 -20 -20 -20 -20 -20 -20 -20 -20 -20 -20 -20 -20 -20 -20 -20 -20 -20 -20
-1 -19 -8 -13 -20 -20 -20 -20 15 -1 -20 -13 18 38 30 -2 15 17 27 6 -6 -4 -11 -20 -20 -20 -20 -20 -20 -20 -20 -20 -20 -20 -20 -20 -20 -20 -20 -20 -20 -20 -20 -20 -20 -20 -20
-20 -1 -20 -20 -20 -13 -20 -20 -5 -13 -13 2 17 43 27 -3 19 17 25 10 6 -4 -20 -20 -20 -20 -20 -20 -20 -20 -20 -20 -20 -20 -20 -20 -20 -20 -20 -20 -20 -20 -20 -20 -20 -20 -20
-20 -20 -20 -20 -14 -20 -20 -20 -12 9 7 -17 21 35 41 22 19 18 17 -4 -1 -18 -20 -20 -20 -20 -20 -20 -20 -20 -20 -20 -20 -20 -17 -20 -20 -20 -20 -20 -20 -20 -20 -20 -20 -20 -20
-18 -20 -4 -18 -20 2 -20 -20 -2 16 -19 -19 15 34 40 33 27 17 6 4 -12 -19 -20 -20 -20 -20 -20 -20 -20 -20 -20 -20 -20 -13 -2 -15 -20 -20 -20 -20 -20 -20 -20 -20 -20 -20 -20
17 12 11 11 -13 -20 -20 -14 6 -11 16 13 21 36 39 31 29 11 -6 -2 -8 -15 -20 -20 -20 -20 -20 -20 -20 -20 -20 -20 -10 -6 -1 -7 -20 -20 -20 -20 -20 -11 -3 -20 -20 -20 -20
16 9 12 2 14 5 -18 -20 -5 11 11 21 29 43 39 39 33 14 1 -20 -20 -20 -20 -20 -15 -13 -20 -20 -20 -20 -20 -15 1 6 4 -9 -4 -19 -20 -20 -20 -20 -20 -20 -20 -20 -20
19 15 13 -9 16 12 8 -2 12 15 -15 18 30 39 41 43 35 23 -5 -20 -20 -20 -20 -18 -11 -20 -20 -20 -20 -20 -20 -10 -8 -19 -14 -1 -7 -20 -20 -20 -20 -20 -20 -20 -20 -20 -20
20 22 17 16 15 16 16 15 21 14 -20 24 41 34 39 22 15 7 -20 -20 -20 -20 -20 -20 -19 -5 -6 -20 -2 -3 -3 6 8 -6 -20 -12 -5 -19 -20 -20 -20 -20 -20 -20 -20 -20 -20
27 26 25 17 12 21 26 21 20 17 10 32 40 32 30 20 6 1 -20 -20 -20 -16 -7 -12 6 13 8 -19 2 15 14 13 17 1 -10 -13 -20 -20 -20 -20 -20 -20 -20 -20 -20 -20 -20
21 14 25 35 31 22 23 28 27 15 25 31 41 28 34 17 -7 -20 -20 -20 -20 -18 -10 14 17 11 -0 -9 4 15 16 19 15 8 -15 -20 -20 -20 -20 -20 -20 -20 -20 -20 -20 -20 -20
1 18 20 21 30 29 31 25 -12 -6 19 33 35 18 -2 18 27 -18 -20 -20 -20 -20 -11 15 13 11 10 16 9 -4 -6 8 10 -2 -20 -20 -20 -20 -20 -20 -20 -20 -20 -20 -20 -20 -20
1 15 19 27 31 31 26 12 19 -12 -14 42 29 17 12 14 27 -20 -20 -20 -20 -20 -2 5 5 16 13 11 3 -9 -18 -20 -20 -20 -20 -20 -16 -11 -20 -20 -20 -20 -20 -20 -20 -20 -17
7 14 22 37 31 30 24 32 6 -20 -20 28 37 30 33 31 14 6 -10 -15 -8 -10 -0 15 13 16 16 22 21 3 -12 -20 -20 -20 -20 -10 5 5 -7 -18 -20 -20 -20 -20 -20 -20 2
9 6 19 35 30 35 37 33 26 4 -14 32 31 6 14 10 -5 5 -8 -17 -20 -20 10 9 8 10 23 27 27 14 7 -20 -20 -20 -20 -20 -18 -20 -6 7 -8 -20 -20 -20 -20 -20 -20
10 10 22 37 30 34 36 30 33 33 32 20 23 27 33 -3 -1 4 3 8 -9 -6 20 10 10 13 21 23 22 17 5 -14 -20 -16 -20 -4 -19 -20 -20 -20 -20 -20 -15 23 -3 -15 -20

GFSGBSN_prec_radar_240.txt.gz
Reflectivity
-2 6 15 11 6 7 4 -6 6 -8 -20 -20 -20 -20 -20 -20 -20 -20 -20 -18 -20 -20 -20 -20 -20 -20 -20 -20 -20 -20 -20 -20 -20 -20 -20 -20 -20 -20 -20 -20 -20 -20 -20 -20 -20 -20 -20
-20 3 -3 8 11 6 3 1 -3 -12 6 -20 -20 -20 -20 -20 -20 -20 -20 -20 -20 -20 -20 -20 -20 -20 -20 -20 -20 -20 -20 -20 -20 -20 -20 -20 -20 -20 -20 -20 -20 -20 -20 -20 -20 -20 -20
-20 -20 -8 -1 -1 13 5 -2 3 -3 -20 -20 -20 -20 -20 -20 -20 -20 -20 -20 -20 -20 -20 -20 -20 -20 -20 -20 -20 -20 -20 -20 -20 -20 -20 -20 -20 -20 -20 -20 -20 -20 -20 -20 -20 -20 -20
-20 -20 -20 -20 -20 -5 -13 1 4 -20 -20 -20 -20 -20 -20 -20 -20 -20 -20 -20 -20 -20 -20 -20 -20 -20 -20 -20 -20 -20 -20 -20 -20 -20 -20 -20 -20 -20 -20 -20 -20 -20 -20 -20 -20 -20 -20
-20 -20 -20 -20 3 -20 -4 -5 -9 -9 -20 -20 -20 -20 -20 -20 -20 -20 -20 -20 -20 -20 -20 -20 -20 -20 -20 -20 -20 -20 -20 -20 -20 -20 -20 -20 -20 -20 -20 -20 -20 -20 -20 -20 -20 -20 -20
-20 -20 -20 8 -7 -18 -20 -19 -7 -8 -4 -20 -20 -20 -20 -20 -20 -20 -20 -20 -20 -20 -20 -20 -20 -20 -9 -20 -20 -20 -20 -20 -20 -20 -20 -20 -20 -20 -20 -20 -20 -20 -20 -20 -20 -20 -20
-20 -20 -20 -20 -15 -20 1 0 -20 -18 0 -2 -20 5 -17 -20 -20 -20 -20 -20 -20 -20 -20 -20 -20 -20 -20 -20 -20 -20 -20 -20 -20 -20 -20 -20 -20 -20 -20 -20 -20 -20 -20 -20 -20 -20 -20
-20 -20 -20 -20 -20 -15 -9 -8 -20 -15 -20 -20 -19 11 10 -11 -20 -20 -20 -20 -20 -20 -20 -20 -20 -20 -20 -20 -20 -16 -20 -20 -20 -20 -20 -20 -20 -20 -20 -20 -20 -20 -20 -20 -20 -20 -20
-20 -20 -20 -20 -20 -20 -4 -20 -20 -20 -19 -19 17 7 13 14 -20 -20 -20 -20 -20 -20 -20 -20 -20 -20 -20 -20 -20 -20 -20 -20 -20 -20 -20 -20 -20 -20 -20 -20 -20 -20 -20 -20 -20 -20 -20
-20 -19 -6 -20 -20 -20 -20 -0 -20 -8 -20 -20 4 27 15 16 14 -20 -20 -15 -20 -20 -20 -20 -20 -20 -20 -20 -20 -20 -20 -20 -20 -20 -20 -20 -20 -20 -20 -20 -20 -20 -20 -20 -20 -20 -20
-20 -20 -20 -20 -20 -20 -20 -20 -20 -18 -20 -20 -18 5 27 21 -11 -20 -18 -3 9 -14 -20 -20 -20 -20 -20 -20 -20 -20 -17 -20 -20 -20 -20 -20 -20 -20 -20 -20 -20 -20 -20 -20 -20 -20 -20
-20 -17 -20 -20 -20 -20 -20 -20 -20 -3 8 -20 -19 14 26 25 30 -20 -11 9 5 -10 -20 -20 -20 -20 -20 -20 -20 -20 -20 -20 -20 -20 -20 -20 -20 -20 -20 -20 -20 -20 -20 -20 -20 -20 -20
-20 -20 -20 -20 -20 -20 2 4 -20 -20 1 12 -20 11 25 35 32 11 6 18 12 -9 -9 -20 -20 -20 -20 -20 -20 -20 -20 -20 -20 -20 -20 -20 -20 -20 -20 -20 -20 -20 -20 -20 -20 -20 -20
-15 -20 -20 -20 -20 -20 -20 -20 -20 -20 -20 -15 3 -13 18 42 28 -9 22 25 25 10 -19 -20 -20 -20 -20 -20 -20 -20 -20 -20 -20 -20 -20 -20 -20 -20 -20 -20 -20 -20 -20 -20 -20 -20 -20
-4 -17 -20 -19 -20 -20 -20 -20 -20 -20 -5 -1 14 -19 8 38 14 28 16 31 35 19 0 -20 -20 -20 -20 -20 -20 -20 -20 -20 -20 -20 -20 -20 -20 -20 -20 -20 -20 -20 -20 -20 -20 -20 -20
4 -12 -20 -20 -20 -9 -20 -20 -20 -20 -13 9 -20 7 -11 -2 24 41 30 36 32 16 1 -18 -20 -20 -20 -20 -20 -20 -20 -20 -20 -20 -20 -20 -20 -20 -20 -20 -20 -20 -20 -20 -20 -20 -20
11 8 -8 -11 -20 -20 -20 -20 1 -20 -20 -0 21 14 -20 -11 34 39 41 36 32 3 -9 -20 -20 -18 -20 -20 -20 -20 -20 -20 -20 -20 -20 -20 -20 -20 -20 -20 -20 -20 -20 -20 -20 -20 -20
10 8 16 8 7 -20 -20 -19 2 2 -20 13 15 12 -20 13 30 33 43 26 -1 -11 10 -20 -20 8 -3 -20 -20 -20 -20 -20 -20 -11 -9 -20 -20 -20 -20 -20 -20 -20 -20 -20 -20 -20 -20
16 13 8 20 15 -20 -14 -13 -5 -3 11 -20 20 5 -11 12 36 41 40 10 -19 -20 -20 -20 -20 -6 -3 -20 -20 -20 -20 -20 -7 9 4 -9 -20 -20 -20 -20 -20 -20 -20 -20 -20 -20 -20
-20 16 21 5 8 16 5 11 -4 18 -15 10 14 16 -11 17 37 33 37 -8 -5 -20 -20 -6 -20 -13 -6 -20 -20 -20 -20 -20 -5 3 -8 -20 -20 -20 -20 -20 -6 -2 -19 -20 -20 -20 -20
5 -13 11 -20 15 6 8 -20 16 15 -20 17 27 24 8 -3 29 32 24 -18 -19 3 -20 -20 -20 -20 -19 -20 -20 -20 -20 -20 -19 7 3 -19 -20 -20 -20 -20 -20 -20 -20 -20 -20 -20 -20
13 -13 -7 -12 20 20 17 18 -17 18 12 21 31 24 -10 -1 33 28 6 -19 -20 -20 -20 -20 -20 -20 10 0 -20 -20 -20 -20 -20 -14 11 11 -9 -20 -20 -20 -20 -20 -20 -20 -20 -20 -16
1 -20 9 10 16 22 20 19 19 19 19 24 21 10 -5 34 27 26 -17 -20 -17 -20 -20 -20 -19 1 10 -3 1 -2 8 9 9 -0 -19 -20 -16 -19 -20 -20 -20 -20 -20 -20 -20 -18 -19
5 7 -0 8 22 17 24 18 17 17 19 24 17 8 10 20 20 34 -19 -20 -20 -20 -20 -20 -20 -14 3 10 14 13 19 18 12 -2 -20 -20 -20 -20 -20 -20 -20 -20 -20 -20 -20 -20 -20
-20 3 -15 -9 17 19 28 34 23 12 21 18 17 13 11 12 32 9 -20 -20 -20 -20 -4 -19 -20 -16 6 17 16 10 4 13 6 -10 -20 -20 -20 -20 -20 -20 -20 -20 -19 -10 -17 -20 -20
19 4 14 19 18 15 17 8 31 23 19 25 24 -14 2 19 35 -11 -20 -20 -20 -20 1 -18 -20 -20 13 18 17 10 -19 -20 -4 -16 -20 -20 -20 -14 -20 -20 -20 -20 -20 -20 -20 -20 -20
-20 14 18 26 27 26 29 28 28 33 25 31 25 1 -8 33 36 -20 -20 -20 -20 -20 -20 -20 -19 -10 12 15 10 -6 -20 -20 -20 -20 -15 10 15 13 -19 -20 -20 -20 -20 -20 -20 -20 -20
8 7 17 23 28 31 31 31 27 21 12 28 22 5 -12 33 36 -4 2 -20 -20 -5 1 -14 3 23 21 12 -6 -3 -20 -20 -20 -20 -16 -17 4 7 4 -2 -19 -20 -20 -20 -20 -20 -20
18 19 27 22 32 35 36 36 36 35 19 13 13 14 -8 32 35 23 26 -11 -20 -11 1 -5 14 20 10 5 -9 -9 -0 -20 -20 -20 -20 -20 -15 8 15 14 8 -12 -20 -20 -20 -20 -20

GFSGBSN_prec_radar_243.txt.gz
Reflectivity
3 4 7 -1 -20 -20 4 9 8 6 10 1 -20 -20 -20 -20 -20 -20 -20 -20 -20 -20 -20 -20 -20 -20 -20 -20 -20 -20 -20 -20 -20 -20 -20 -20 -20 -20 -20 -20 -20 -20 -20 -20 -20 -20 -20
-18 -9 -6 -0 -12 -4 2 -11 3 5 -9 8 1 -20 -20 -20 -20 -20 -20 -20 -20 -20 -20 -20 -20 -20 -20 -20 -20 -20 -20 -20 -20 -20 -20 -20 -20 -20 -20 -20 -20 -20 -20 -20 -20 -20 -20
-20 -20 -10 -16 -19 1 1 6 -20 -3 -3 -19 -12 -20 -20 -20 -20 -20 -20 -20 -20 -20 -20 -20 -20 -20 -20 -20 -20 -20 -20 -20 -20 -20 -20 -20 -20 -20 -20 -20 -20 -20 -20 -20 -20 -20 -20
-20 -20 -20 -20 -20 -7 -20 -20 3 9 -14 -18 -20 -20 -20 -20 -20 -20 -20 -20 -20 -20 -20 -20 -20 -20 -20 -20 -20 -20 -20 -20 -20 -20 -20 -20 -20 -20 -20 -20 -20 -20 -20 -20 -20 -20 -20
-12 -20 -20 -20 5 -20 -19 -19 -20 -18 16 -1 -20 -20 4 -20 -20 -20 -20 -20 -20 -20 -20 -20 -20 -20 -20 -20 -20 -20 -20 -20 -20 -20 -20 -20 -20 -20 -20 -20 -20 -20 -20 -20 -20 -20 -20
-20 -20 -20 -20 -20 -13 -16 -16 -19 -20 -20 -11 9 -20 -20 -20 -20 -20 -20 -20 -20 -20 -20 -20 -20 -20 -20 -20 -20 -20 -16 -20 -20 -20 -20 -20 -20 -20 -20 -20 -20 -20 -20 -20 -20 -20 -20
-20 -20 -20 -20 -20 -20 -20 -12 -15 -20 -20 -20 -5 -7 -20 -20 -2 -20 -20 -20 -20 -20 -20 -20 -20 -20 -20 -20 -20 -20 -20 -20 -20 -20 -20 -20 -20 -20 -20 -20 -20 -20 -20 -20 -20 -20 -20
-1 -20 -20 -20 -20 -20 -20 -15 -14 -20 -20 -20 -20 -2 -7 -20 5 7 -20 -20 -20 -20 -20 -20 -20 -20 -20 -20 -20 -20 -20 -20 -20 -20 -20 -20 -20 -20 -20 -20 -20 -20 -20 -20 -20 -20 -20
0 -1 -20 -20 -20 -20 -20 -20 -20 -20 -20 -20 -20 -20 -2 -6 13 18 -20 -20 -20 -20 -20 -20 -20 -20 -20 -20 -20 -20 -20 -20 -20 -20 -20 -20 -20 -20 -20 -20 -20 -20 -20 -20 -20 -20 -20
-20 -4 -18 -20 -20 -20 -20 -20 -20 -9 -20 -20 -20 -20 -19 16 33 11 -18 -20 -10 -20 -20 -20 -20 -20 -20 -20 -20 -20 -20 -20 -20 -20 -20 -20 -20 -20 -20 -20 -20 -20 -20 -20 -20 -20 -20
5 -14 -10 -20 -20 -20 -20 -20 -20 -20 -20 -20 -20 -20 -20 17 33 23 -14 15 9 -19 -20 -20 -20 -20 -20 -20 -20 -20 -20 -20 -20 -20 -20 -20 -20 -20 -20 -20 -20 -20 -20 -20 -20 -20 -20
-12 5 -16 -15 -3 -20 -20 -20 -20 -20 -20 -20 -20 -20 -20 3 27 7 20 20 19 7 -4 -20 -20 -20 -20 -20 -20 -20 -20 -20 -20 -20 -20 -20 -20 -20 -20 -20 -20 -20 -20 -20 -20 -20 -20
-20 -10 0 -20 -20 -10 -20 -20 -8 -8 -20 -20 -20 4 11 -15 16 10 32 18 30 18 6 -20 -20 -20 -20 -20 -20 -20 -20 -20 -20 -20 -20 -20 -20 -20 -20 -20 -20 -20 -20 -20 -20 -20 -20
-20 -20 -20 -1 -20 -20 -20 -20 -20 -20 -20 -20 -20 -20 -20 -20 -16 27 30 36 30 26 0 -20 -20 -20 -20 -20 -20 -20 -20 -20 -20 -20 -20 -20 -20 -20 -20 -20 -20 -20 -20 -20 -20 -20 -20
-20 -9 -20 -20 -20 -20 -13 -2 -20 -20 -20 -20 -16 -20 -3 -20 -17 31 32 40 39 32 -4 -20 -20 -20 -20 -20 -20 -20 -20 -20 -20 -20 -20 -20 -20 -20 -20 -20 -20 -20 -20 -20 -20 -20 -20
7 6 12 -13 -20 -20 -20 6 -9 -2 -20 -18 -8 -10 -20 -20 -19 30 39 39 36 12 2 -7 -20 -20 -20 -20 -20 -20 -20 -20 -20 -20 -20 -17 -20 -20 -20 -20 -20 -20 -20 -20 -20 -20 -20
9 -3 8 4 5 -20 -20 -18 -20 -12 -11 -10 -17 7 -20 -20 5 18 32 35 26 13 -12 -19 -17 -20 -20 -20 -20 -20 -20 -20 -20 -20 -20 -9 -20 -20 -20 -20 -20 -20 -20 -20 -20 -20 -20
5 -11 -1 4 14 16 10 -8 4 -19 16 22 0 3 -20 -20 -13 -15 34 35 7 -13 -6 7 2 9 -15 -19 -8 -20 -20 -20 -20 -10 -1 -14 -20 -20 -20 -20 -20 -20 -20 -20 -20 -20 -20
-1 5 -20 -1 7 7 -0 11 10 15 5 -20 5 -13 -19 17 3 -1 3 35 -6 -20 -20 2 -1 -4 -5 -20 -9 -12 -20 -20 -16 -3 3 -2 -5 -11 -20 -20 -20 -20 -20 -20 -20 -20 -20
-6 -1 2 -20 15 21 19 16 15 17 15 18 -1 6 -18 12 -20 8 -17 29 11 -20 -20 -20 -20 -15 -8 -11 -7 -1 -20 -20 -20 -8 8 10 5 -13 -15 -20 -20 -20 -20 -20 -20 -20 -20
4 14 -20 -12 -20 -20 -7 -18 18 18 18 19 24 8 -15 17 -8 -20 5 20 29 -10 -20 -20 15 14 8 8 6 -14 -20 -20 -20 -8 12 10 -2 -14 -19 -20 -20 -20 -20 -20 -20 -20 -20
11 10 -1 16 -20 4 11 -16 17 17 19 27 11 7 -13 -20 -20 -19 -20 31 22 -19 -20 -20 -2 -16 -20 -2 -7 -13 -20 3 -20 3 9 8 -2 -20 -20 -20 -5 2 -20 -20 -20 -20 -20
5 4 -3 -16 5 -20 17 17 21 21 23 24 15 8 19 -18 -19 -11 -2 -17 13 -20 -20 -20 -19 5 -5 -20 -20 5 10 6 14 8 -1 7 4 -17 -20 -20 -13 9 -11 -20 -20 -20 -20
-3 -0 2 1 2 -4 -0 -5 17 27 23 21 16 6 12 -2 4 6 -20 17 -20 -4 -20 -20 -17 -13 -9 -20 6 20 14 6 4 -20 -20 -20 -20 -20 -20 -20 -14 -20 -20 -20 -20 -20 -20
-16 -20 -13 -0 -20 -15 -2 3 -13 30 22 22 24 19 18 0 -18 -20 -10 15 7 -6 -19 -20 -20 -20 -9 -11 14 20 14 -19 -14 -13 -20 11 -16 -17 -13 -20 -20 -20 -20 -20 -20 -20 -20
16 15 11 13 17 12 -1 21 10 24 31 23 13 3 18 14 -20 -20 -20 -20 8 8 15 -6 -20 -18 7 21 16 18 8 -20 -20 -20 -20 -19 -15 -20 -17 -20 -20 -20 -20 -20 -20 -20 -20
14 18 19 18 18 15 18 19 20 18 36 31 17 -3 7 13 -20 14 -9 -10 -14 23 20 -5 -19 13 8 30 27 15 -3 -16 -20 -20 -14 6 5 -20 -20 -20 -20 -20 -20 -16 -15 -20 -15
16 14 -20 18 14 5 17 22 18 17 18 34 40 17 1 13 -18 -1 9 14 20 32 36 15 5 1 17 28 25 16 -20 -20 -20 -20 -15 -3 -2 -11 -18 -20 -20 -20 -20 -20 -20 -20 -20
9 10 21 25 25 27 24 22 15 -3 13 16 33 31 15 -0 12 -6 12 22 19 16 20 23 -6 17 -12 7 -12 -20 -20 -20 -20 -20 -20 -6 -15 0 7 5 -14 -20 -20 -20 -20 -20 -20

GFSGBSN_prec_radar_246.txt.gz
Reflectivity
1 9 -15 -19 -20 -8 -0 4 -14 -6 -17 -5 -1 -14 -20 -20 -20 -20 -20 -20 -20 -20 -20 -20 -20 -20 -20 -20 -20 -20 -20 -20 -20 -20 -20 -20 -20 -20 -20 -20 -20 -20 -20 -20 -20 -20 -20
1 6 3 -6 -3 -1 -19 -20 -20 -20 -3 -1 -20 -6 -18 -20 -20 -20 -20 -20 -20 -20 -20 -20 -20 -20 -20 -20 -20 -20 -20 -20 -20 -20 -20 -20 -20 -20 -20 -20 -20 -20 -20 -20 -20 -20 -20
-19 -3 1 -1 -9 -12 -4 -1 0 -20 -20 -20 -1 -20 -20 -20 -20 -20 -20 -20 -20 -20 -20 -20 -20 -20 -20 -20 -20 -20 -20 -20 -20 -20 -20 -20 -20 -20 -20 -20 -20 -20 -20 -20 -20 -20 -20
-20 -20 -3 -5 0 -1 -11 4 -20 -17 -16 -20 -20 -20 -20 -19 -20 -20 -20 -20 -20 -20 -20 -20 -20 -20 -20 -20 -20 -20 -20 -20 -20 -20 -20 -20 -20 -20 -20 -20 -20 -20 -20 -20 -20 -20 -20
-20 -20 -20 -20 -5 3 -15 -8 1 -7 -18 -13 -7 -20 -20 -12 1 -20 -20 -20 -20 -20 -20 -20 -20 -20 -20 -20 -20 -20 -20 -20 -20 -20 -20 -20 -20 -20 -20 -20 -20 -20 -20 -20 -20 -20 -20
-19 -20 -20 -20 -20 -17 -0 -5 -2 6 -15 -20 -20 8 -20 -20 7 -2 -20 -20 -20 -20 -20 -20 -20 -20 -20 -20 -20 -20 -20 -20 -20 -20 -20 -20 -20 -20 -20 -20 -20 -20 -20 -20 -20 -20 -20
11 1 -20 -20 -20 -20 -20 -7 -2 -4 8 3 -20 -4 -16 -3 -19 7 -5 -20 -20 -20 -20 -20 -20 -20 -20 -20 -20 -20 -20 -20 -20 -20 -20 -20 -20 -20 -20 -20 -20 -20 -20 -20 -20 -20 -20
-20 6 4 -1 -14 -20 -20 -20 -20 -12 -6 2 7 -2 -20 -20 -10 10 3 -20 -20 -20 -20 -20 -20 -20 -20 -20 -20 -20 -20 -20 -20 -20 -20 -20 -20 -20 -20 -20 -20 -20 -20 -20 -20 -20 -20
-20 -20 -20 -1 -20 -10 -20 -20 -20 -20 -18 -13 -12 4 7 -16 6 6 -9 -20 -20 -20 -20 -20 -20 -20 -20 -20 -20 -20 -20 -20 -20 -20 -20 -20 -20 -20 -20 -20 -20 -20 -20 -20 -20 -20 -20
0 -20 -20 -20 -20 -20 -16 -16 -20 -20 -20 -20 -20 -20 -4 3 -2 -5 5 -15 -2 -11 -20 -20 -20 -20 -20 -20 -20 -20 -20 -20 -20 -20 -20 -20 -20 -20 -20 -20 -20 -20 -20 -20 -20 -20 -20
-20 -20 -20 -20 -20 -20 -20 -20 -20 -20 -20 -20 -20 -20 -20 -20 -5 2 0 -4 23 26 19 -20 -20 -20 -20 -20 -20 -20 -20 -20 -20 -20 -20 -20 -20 -20 -20 -20 -20 -20 -20 -20 -20 -20 -20
-20 1 9 1 -1 -20 -20 -20 -20 -20 -13 -20 -20 -20 -15 -20 -20 -19 14 25 27 37 25 16 -20 -20 -20 -20 -20 -20 -20 -20 -20 -20 -20 -20 -20 -20 -20 -20 -20 -20 -20 -20 -20 -20 -20
6 -20 -20 -20 -20 -9 -20 -20 -20 -20 -20 7 -20 -20 11 -8 -20 -20 4 33 25 32 33 0 -20 -20 -20 -20 -20 -20 -20 -20 -20 -20 -20 -20 -20 -20 -20 -20 -20 -20 -20 -20 -20 -20 -20
-20 -20 -20 -20 -20 -20 -18 -19 -20 -20 -20 -20 -20 -9 -20 5 -20 -20 -18 34 16 18 34 1 -17 -20 -20 -20 -20 -20 -20 -20 -20 -20 -20 -20 -20 -20 -20 -19 -11 -9 -20 -20 -20 -20 -20
-2 -6 -6 -11 -20 -17 -20 -20 -20 -20 -10 -20 -16 -20 3 -20 -19 -18 -20 24 33 -11 -12 -11 -15 -20 -20 -20 -20 -20 -20 -20 -20 -20 -20 -20 -20 -20 -20 -20 -20 -20 -20 -20 -20 -20 -20
-20 -20 -20 -5 -20 -20 -11 -5 -20 -10 -20 3 -20 -18 -20 -20 -20 -20 -10 -6 31 -14 -20 -20 -8 -20 -20 -20 -20 -20 -20 -20 -20 -20 -20 -20 -20 -20 -20 -20 -20 -20 -20 -20 -20 -20 -20
-6 6 7 2 -8 -1 -10 -2 -2 -20 -5 -16 -8 -15 -20 -20 -9 2 -15 -20 -18 -20 -20 -20 -20 -7 -12 -20 -20 -20 -20 -20 -20 -20 -20 -12 -20 -20 -20 -20 -20 -9 -20 -20 -20 -20 -20
-20 -15 -20 -20 -20 -20 -14 2 16 10 -20 23 2 0 -20 -20 -16 -6 -20 -20 -20 -20 -20 -20 -20 -20 -20 2 -15 -20 -20 -20 -20 -20 -20 -20 -20 -20 -20 -20 -20 -20 -20 -20 -20 -20 -20
-20 -20 -20 -20 -20 -20 -20 -20 -13 15 16 -16 11 -13 -20 23 11 -20 -20 -20 -20 -20 -2 -19 -7 -20 -20 -20 1 6 -20 -20 -20 1 -0 -17 -1 -13 -15 -20 -20 -20 -20 -20 -20 -20 -20
-20 -20 -20 -20 -20 -8 -20 -20 13 12 20 16 13 5 -8 -20 -20 14 -16 -20 -20 -20 -20 1 18 -20 -0 -12 5 12 -20 -20 -15 -8 4 3 1 -2 -20 -20 -20 -20 -20 -20 -10 -4 -15
-20 -8 -14 -20 -20 -2 -16 -1 18 22 22 17 26 8 -20 4 -20 -20 -20 -15 -20 -20 -13 15 10 -18 -6 4 -5 13 -20 -20 -17 -7 3 17 14 -1 -19 -20 -20 -20 -20 -20 -20 -20 -20
-1 -20 -15 -20 -20 -20 -1 -19 14 -20 25 30 32 14 -20 -20 -16 -20 -20 -20 -20 -20 9 21 31 4 -20 -20 -12 -20 11 16 10 2 2 17 21 -4 -20 -20 -20 3 12 -5 -19 -20 -20
-6 1 2 6 9 -4 9 14 -9 11 22 30 40 6 -20 -17 -20 -20 -20 -20 -20 -20 -20 5 19 22 -20 -20 -13 9 13 6 15 9 18 22 15 -2 -20 -20 8 13 11 -13 -20 -20 -20
-1 0 4 7 -7 -11 -1 -8 -20 -5 19 16 34 18 -7 0 -10 -20 -20 -20 -20 -4 -20 -18 13 15 1 -20 5 6 24 19 5 7 14 27 15 -20 -20 -20 -7 -6 -7 -18 -20 -20 -20
7 -2 7 10 -20 -20 -16 -19 -20 18 4 9 40 9 -18 -14 -17 -20 -20 -20 -20 -20 -20 -6 -6 25 -12 18 24 29 29 19 19 17 9 -2 -1 -20 -20 -20 -20 -20 -20 -20 -20 -20 -20
15 12 10 11 14 13 9 -3 -3 1 -8 19 11 42 25 -2 -19 -20 -20 -20 -20 12 -20 -20 -19 13 30 29 32 32 12 14 9 3 6 11 9 12 4 -1 -20 -20 -20 -20 -20 -20 -20
19 14 17 18 17 16 18 17 0 7 2 14 13 40 28 5 -16 -20 -20 -20 -20 -14 -14 -9 4 18 29 36 32 34 21 -20 -18 -12 -20 -9 -9 -20 -20 -20 -20 -20 -20 -20 -20 -20 -18
-0 2 5 14 1 -11 18 18 24 2 16 19 29 31 39 17 -2 -20 -20 -6 -12 -11 11 -20 17 23 24 32 38 31 -18 -20 -20 -20 -18 -11 -20 -20 -18 -13 -20 -20 -20 -19 -20 -20 -20
21 10 10 14 16 12 17 18 21 21 14 16 30 15 34 35 -6 -20 -20 -20 -20 -20 8 -4 37 22 22 32 28 4 -20 -20 -20 -20 -15 -12 -20 -13 -1 -20 -20 -20 -20 -20 -20 -20 -20

GFSGBSN_prec_radar_252.txt.gz
Reflectivity
1 1 7 -16 -12 -9 -20 -20 -20 -20 -20 -20 -20 -20 -20 -20 -20 -20 -20 -20 -20 -20 -20 -20 -20 -20 -20 -20 -20 -20 -20 -20 -20 -20 -20 -20 -20 -20 -20 -20 -20 -20 -20 -20 -20 -20 -20
-20 -6 -20 -20 -5 -12 -20 -20 -20 -20 -20 -20 -20 -20 -20 -20 -20 -20 -20 -20 -20 -20 -20 -20 -20 -20 -20 -20 -20 -20 -20 -20 -20 -20 -20 -20 -20 -20 -20 -20 -20 -20 -20 -20 -20 -20 -20
-20 -20 -20 -5 -9 -17 -18 -20 -20 -20 -20 -20 -20 -20 -20 -20 -20 -20 -20 -20 -20 -20 -20 -20 -20 -20 -20 -20 -20 -20 -17 -20 -20 -20 -20 -20 -20 -20 -20 -20 -20 -20 -20 -20 -20 -20 -20
-20 -20 -14 -16 -20 -6 -20 -19 -16 -20 -20 -20 -20 -20 -20 -20 -20 -20 -20 -20 -20 -20 -20 -20 -20 -20 -20 -20 -20 -20 -20 -20 -20 -20 -20 -20 -20 -20 -20 -20 -20 -20 -20 -20 -20 -20 -20
-20 -18 -20 -20 -20 -8 -10 -20 -19 -15 -20 -20 -20 -20 -20 -20 -20 -20 -20 -20 -20 -20 -20 -20 -20 -20 -20 -20 -20 -20 -20 -20 -20 -20 -20 -20 -20 -20 -20 -20 -20 -20 -20 -20 -20 -20 -20
2 -20 -20 -20 -20 -20 -20 -11 -19 -20 -18 -20 -20 -20 -20 -20 -20 -20 -20 -20 -20 -20 -20 -20 -20 -20 -20 -20 -20 -20 -20 -20 -20 -20 -20 -20 -17 -20 -20 -20 -20 -20 -20 -20 -20 -20 -20
1 9 -8 -14 -20 -20 -20 -20 -5 -7 -18 -20 -20 -15 -20 -20 -20 -20 -20 -20 -20 -20 -20 -20 -20 -20 -20 -20 -20 -20 -20 -20 -20 -20 -20 -20 -20 -20 -20 -20 -20 -20 -20 -20 -20 -20 -20
-20 -20 -20 -20 -20 -20 -20 -20 -20 -20 -15 -5 -20 -20 -20 -20 -15 -20 -20 -20 -19 -13 -20 -20 -20 -20 -20 -20 -20 -20 -20 -20 -20 -20 -20 -20 -20 -20 -20 -20 -20 -20 -20 -20 -20 -20 -20
-20 -20 -20 -20 -20 -20 -20 -20 -20 -20 -20 -20 -16 -12 -20 -20 -20 -13 1 -20 -20 -20 -20 -20 -20 -20 -20 -20 -20 -20 -20 -20 -20 -20 -20 -20 -20 -20 -20 -20 -20 -20 -20 -20 -20 -20 -20
-20 -20 -20 -20 -20 -20 -20 -20 -20 -20 -20 -20 -20 -20 -20 -20 -20 -20 -19 -18 -2 -12 -20 -20 -20 -20 -20 -20 -20 -20 -20 -20 -20 -20 -20 -20 -20 -20 -20 -20 -20 -20 -20 -20 -20 -20 -20
-20 -20 -20 -20 -20 -20 -20 -20 -20 -20 -20 -20 -20 -20 -20 -20 -20 -20 -20 -20 -18 8 12 -7 -20 -20 -20 -20 -20 -20 -20 -20 -20 -20 -20 -20 -20 -20 -20 -20 -20 -20 -20 -20 -20 -20 -20
-20 -20 -20 -13 -11 -20 -20 -20 -20 -20 -20 -20 -20 -20 -20 -20 -20 -20 -20 -20 -18 -12 -3 -5 -19 -20 -20 -20 -20 -20 -20 -20 -20 -20 -20 -20 -20 -20 -20 -20 -20 -20 -20 -20 -20 -20 -20
-20 -20 -20 -20 -20 -20 -20 -20 -20 -20 -20 -20 -20 -20 -20 -20 -20 -20 -20 -3 -13 -20 -20 -20 -20 -20 -20 -20 -20 -20 -20 -20 -20 -20 -20 -20 -20 -20 -20 -20 -20 -20 -20 -20 -20 -20 -20
-20 -20 -20 -20 -20 -20 -20 -20 -20 -20 -20 -20 -20 -20 -20 -20 -20 -20 -20 -20 3 -20 -20 -20 -20 -20 -20 -20 -20 -20 -11 -14 -20 -20 -20 -20 -20 -20 -20 -20 -20 -20 -20 -20 -20 -20 -20
-20 -20 -20 -6 -17 -20 -20 -20 -20 -20 -20 -16 -20 -7 -20 -20 -20 -20 -20 -20 -20 -20 -20 -20 -20 -20 -20 -20 -20 -20 -20 6 -14 -20 -20 -20 -20 -20 -20 -20 -20 -20 -20 -20 -20 -20 -20
-20 -20 -17 -20 -20 -7 4 7 -8 -20 -20 -20 -3 -15 -20 -20 -20 -20 -20 -20 -20 -20 -20 -20 -20 -20 -20 -20 -20 -20 -20 -20 -13 5 -12 -18 -20 -20 -20 -20 -20 -20 -18 -17 -20 -20 -20
-9 -20 -20 -20 -20 -20 -20 -14 -20 -20 -10 15 -17 -12 -20 -20 -2 -20 -20 -20 -20 -20 -20 -20 -20 -1 -20 -20 -20 -20 -20 -20 -20 -20 1 15 4 -17 -20 -20 -20 -20 -20 -20 -20 -20 -20
-20 -20 -20 -20 -20 -20 -20 -20 -20 -20 3 6 10 -11 -11 -4 -2 -20 -20 -20 -20 -20 -20 -20 -20 -20 -2 3 -20 -20 -20 -20 -20 -20 3 13 28 16 -12 -20 -19 0 -10 -20 -20 -20 -20
-19 -20 -20 -20 -20 -20 -20 -20 -20 -13 -1 7 11 4 -17 3 2 -5 -20 -20 -20 -20 -20 -20 -20 -20 -20 -20 5 -20 -20 -20 -20 -20 -12 3 11 17 4 6 -20 -20 -14 -10 -20 -20 -3
16 3 -12 -20 -20 -20 -20 -16 -20 -20 8 17 2 14 15 20 -2 -5 -5 -20 -20 -20 -20 -20 -20 -20 -20 -20 -20 -4 -20 -20 -15 -15 -20 12 21 26 11 -9 -12 -18 -18 -18 -12 -11 -10
-20 -20 -20 -20 -20 -20 6 -0 -20 -5 -8 21 21 12 3 12 14 2 2 -20 -20 -18 -20 -20 -20 -20 -20 -20 -20 -20 -20 -20 -0 -5 -5 9 18 19 -10 -20 -20 5 -15 -20 -13 -5 -16
-20 -20 -20 -15 -20 -3 9 15 17 -20 19 21 14 12 12 4 6 11 11 4 -1 -20 -6 -20 -20 -20 -20 -20 -20 -20 -20 -16 12 21 35 36 13 9 -20 -20 -19 16 -2 -20 -20 -20 -20
-20 -20 -20 -20 -20 -20 -12 -2 -20 -20 15 17 12 11 23 -9 6 10 -18 -20 -20 -20 -20 -20 -20 -20 -18 -20 -20 -20 -20 -20 15 16 23 35 25 24 -6 -20 -16 18 19 -16 -20 -20 -20
-20 -20 -20 -20 -20 -19 -16 -20 -1 1 -20 7 11 13 13 6 14 9 -13 -20 -20 -20 -20 -20 -20 -20 -20 -20 -20 -20 -20 -20 -20 -4 -19 31 33 29 37 16 15 29 -3 -20 -20 -20 -20
-20 -20 -20 -20 -20 -20 -20 -20 -20 -20 -20 22 1 20 15 10 5 16 10 8 3 -20 -20 -20 -20 -20 -20 -20 19 7 -20 -20 -20 -0 -15 9 28 42 11 33 7 -20 -20 -20 -20 -20 -8
-20 -20 -19 -5 2 -20 9 10 -20 -20 13 15 17 20 17 17 -14 9 12 13 8 10 13 -19 -20 -20 -20 -20 8 8 -18 -20 -20 -5 -20 18 29 31 38 17 6 3 -20 -16 -20 2 -3
-1 0 7 9 14 4 14 13 8 -0 13 20 12 14 21 11 3 -0 2 10 9 -9 2 -20 -20 11 20 22 19 18 12 -20 -12 -4 -3 14 22 25 15 9 -20 -20 -20 -20 18 14 -9
12 -9 -17 -11 -6 -8 -8 17 14 16 15 22 25 18 14 2 5 8 -12 -8 18 17 10 -20 -6 -20 14 21 21 16 6 -12 -20 -12 16 30 36 21 0 -1 3 -20 -20 -20 -20 -20 -19
-20 -20 -20 -20 -20 -20 -20 -12 17 13 24 19 27 21 18 21 -18 -16 -12 -20 -20 -12 16 -8 16 -1 15 -4 -10 -20 16 15 -19 -20 -20 23 20 -16 -18 -19 -20 -14 -20 -18 -0 1 10

GFSGBSN_prec_radar_258.txt.gz
Reflectivity
6 14 -1 -13 -20 -20 -20 -20 -20 -20 -20 -20 -20 -20 -20 -20 -20 -20 -20 -20 -20 -20 -20 -20 -20 -20 -20 -20 -20 -20 -20 -20 -20 -20 -20 -20 -20 -20 -20 -20 -20 -20 -20 -20 -20 -20 -20
13 11 10 -19 -20 -13 -20 -20 -20 -20 -20 -20 -20 -20 -20 -20 -20 -20 -20 -20 -20 -20 -20 -20 -20 -20 -20 -20 -20 -20 -20 -20 -20 -20 -20 -20 -20 -20 -20 -20 -20 -20 -20 -20 -20 -20 -20
7 -18 -15 -20 -20 -20 -20 -20 -20 -20 -20 -20 -20 -20 -20 -20 -20 -20 -20 -20 -20 -20 -20 -20 -20 -20 -20 -20 -20 -20 -20 -20 -20 -20 -20 -20 -20 -20 -20 -20 -20 -20 -20 -20 -20 -20 -20
-7 -20 -20 -20 -20 -20 -20 -20 -20 -20 -20 -20 -20 -20 -20 -20 -20 -20 -20 -20 -20 -20 -20 -20 -20 -20 -20 -20 -20 -20 -20 -20 -20 -20 -20 -20 -20 -20 -20 -20 -20 -20 -20 -20 -20 -20 -18
1 -20 -20 -20 -20 -20 -20 -20 -20 -20 -20 -20 -20 -20 -20 -20 -20 -20 -20 -20 -20 -20 -20 -20 -20 -20 -20 -20 -20 -20 -20 -20 -20 -20 -20 -20 -20 -20 -20 -20 -20 -20 -20 -20 -20 -20 -20
-20 -20 -20 -20 -20 -20 -20 -20 -20 -20 -20 -20 -20 -20 -20 -20 -20 -20 -20 -20 -20 -20 -20 -20 -20 -20 -20 -20 -20 -20 -20 -20 -20 -20 -20 -20 -20 -20 -20 -20 -20 -20 -20 -20 -20 -20 -20
2 -20 -20 -20 -20 -20 -20 -20 -20 -20 -20 -20 -20 -20 -20 -20 -20 -20 -20 -20 -20 -20 -20 -20 -20 -20 -20 -20 -20 -20 -20 -20 -20 -20 -20 -20 -20 -20 -20 -20 -20 -20 -20 -20 -20 -20 -20
9 9 -1 -20 -20 -20 -20 -20 -20 -20 -20 -20 -20 -20 -20 -20 -20 -20 -20 -20 -20 -20 -20 -20 -20 -20 -20 -20 -20 -20 -20 -20 -20 -20 -20 -20 -20 -20 -20 -20 -20 -20 -20 -20 -20 -20 -20
-20 -20 -20 -20 -20 -20 -20 -20 -20 -20 -20 -20 -20 -20 -20 -20 -20 -20 -20 -20 -20 -20 -20 -20 -20 -20 -20 -20 -20 -20 -20 -20 -20 -20 -20 -20 -20 -20 -20 -20 -20 -20 -20 -20 -20 -20 -20
-20 -20 -20 -20 -20 -20 -20 -20 -20 -20 -20 -20 -20 -20 -20 -20 -20 -20 -20 -20 -20 -20 -20 -20 -20 -20 -20 -20 -20 -20 -20 -20 -20 -20 -20 -20 -20 -20 -20 -20 -20 -20 -20 -20 -20 -20 -20
-20 -20 -20 -20 -20 -20 -20 -20 -20 -20 -20 -20 -20 -20 -20 -20 -20 -20 -20 -20 -20 -20 -20 -20 -20 -20 -20 -20 -20 -20 -20 -20 -20 -20 -17 -20 -20 -20 -20 -20 -20 -20 -20 -20 -20 -20 -20
-20 -20 -20 -20 -20 -20 -20 -20 -20 -20 -20 -20 -20 -20 -20 -20 -20 -20 -20 -20 -19 -16 -20 -20 -20 -20 -20 -20 -20 -20 -20 9 -16 -20 -20 -20 -20 -20 -20 -20 -20 -20 -20 -20 -20 -20 -20
-20 -20 -20 -20 -20 -20 -20 -20 -20 -20 -20 -20 -20 -20 -20 -20 -20 -20 -20 -16 -20 -20 -20 -20 -20 -20 -20 -20 -20 -20 -20 -0 28 4 -9 -20 -20 -20 -20 -20 -20 -20 -20 0 -20 -20 -20
-20 -20 -20 -20 -20 -20 -20 -20 -20 -20 -20 -20 -20 -20 -20 -20 -20 -20 -20 -10 -20 -20 -20 -20 -20 -20 -20 -20 -20 -20 -20 -17 -6 -18 -5 -4 -16 -20 -20 -20 -20 -20 -18 -20 -19 -20 -20
-20 -20 -20 -20 -20 -20 -20 -20 -20 -20 -20 -20 -20 -20 -20 -20 -20 -20 -20 6 -20 -20 -20 -20 -20 -20 -20 -20 -20 -20 -20 -20 -20 -20 -4 18 11 -1 -11 15 3 -12 -14 -20 -20 -20 -20
-20 -20 -20 -20 -20 -20 -20 -20 -20 -20 -20 -20 -20 -20 -20 -20 -20 -20 -20 -20 -20 -20 -20 -20 -20 -20 -20 -20 -20 -20 -20 -20 -20 3 23 19 -8 -1 -20 -19 13 20 19 11 -17 6 -14
-20 -20 -20 -20 -20 -20 -20 -20 -20 -20 -20 -20 -20 -20 -20 -20 -20 -20 -20 -20 -20 -20 -20 -20 -20 -20 -20 -20 -20 -20 -20 -20 11 -10 -15 27 12 -19 -20 1 -4 0 7 12 21 -7 -20
-20 -20 -20 -20 -20 -20 -20 -20 -20 -20 -20 -20 -5 -20 -20 -20 -20 -20 -20 -20 -20 -20 -20 -20 -20 -20 -20 -20 -20 -20 -20 -20 -20 15 -20 -4 -20 -20 -20 -20 5 26 16 8 12 27 -2
-20 -20 -20 -20 -20 -20 -20 -20 -20 -20 -20 3 -3 -20 -19 -20 -20 -20 -20 -20 -20 -20 -20 -20 -20 -20 -20 -20 -20 -20 -20 -20 -20 -20 1 -20 8 -7 -20 -20 -20 4 20 15 22 1 20
-3 -17 -20 -20 -20 -20 -20 -20 -20 -20 -20 -17 6 5 -6 -7 -20 -20 -20 -20 -20 -20 -20 -20 -20 -20 -20 -20 -20 -20 -20 -20 -20 -20 -20 -20 -20 -20 -7 -20 -20 -8 15 16 29 24 27
-20 -20 -20 -20 -20 -20 -20 -20 -20 -20 -20 -1 16 6 -17 5 -17 -20 -20 -20 -20 -20 -20 -20 -20 -20 -20 -20 -20 -20 -20 -20 -20 -20 -20 -20 -20 -20 -20 -20 -20 -20 -20 -20 11 17 4
-20 -20 -20 -20 -20 -20 -20 -20 -20 -20 -20 -5 8 -20 -20 -20 -20 1 9 -11 -20 -20 -20 -20 -20 -20 -20 -20 -16 5 -8 -20 -20 -20 -20 -20 -20 -4 -20 -20 -20 16 -20 -20 -20 -20 6
6 14 -15 -20 -20 -20 -20 -20 -20 -13 -9 3 -4 6 16 0 -18 -1 -20 -20 -2 -5 -20 -20 -20 -20 -20 -19 11 -18 -20 -20 -20 -20 -20 -20 1 14 -20 -20 -11 -12 -20 -20 -20 -20 -20
-20 10 -6 -16 -20 -20 -20 -20 -20 -15 4 -20 -11 13 15 -5 -2 -4 -20 -20 -20 -20 7 -20 -20 -10 -20 -9 -17 -20 -20 -20 -20 -20 -20 -20 -20 -16 -11 -16 3 -20 -20 -20 -20 -20 -20
8 2 -17 -20 -20 -20 -20 -20 -20 -19 10 15 -12 18 18 13 8 7 2 2 -20 -20 -4 -20 -20 -17 -20 5 13 -11 -20 -20 -20 -20 -20 -20 -20 3 -20 -19 -20 -20 -20 -20 -2 -20 -20
-20 -20 -20 -20 -20 -20 -20 -20 -20 -20 -20 -3 -20 8 20 15 -3 2 6 4 9 11 -14 -20 -20 -20 -20 20 22 13 -16 -20 -19 -20 -20 1 -18 4 14 4 -13 -20 -20 6 29 -11 -20
-20 -20 -20 -20 -20 -20 -20 -20 -20 -20 -20 10 -20 -20 9 11 -2 5 13 9 -10 -2 9 -11 -18 9 16 22 23 19 10 -15 0 7 -20 -20 -7 12 15 11 -16 -20 -20 16 20 -13 -17
-20 -20 -20 -20 -20 -20 -20 -15 -4 -5 5 18 2 10 13 21 8 3 -18 -3 -13 -10 12 -18 16 -17 19 17 19 16 14 -18 9 -18 -20 -6 9 6 3 12 5 -20 -20 -2 4 -19 -20
-20 -20 -20 -20 -20 -18 -5 12 -20 -18 14 16 23 5 -7 22 29 -15 1 -20 3 10 15 -18 3 1 35 34 16 12 19 6 9 14 -20 5 -19 12 14 -9 -20 -20 -20 5 10 -5 18

GFSGBSN_prec_radar_264.txt.gz
Reflectivity
-20 -20 -20 -20 -20 -20 -20 -20 -20 -20 -20 -20 -20 -20 -20 -20 -20 -20 -20 -20 -20 -20 -20 -20 -20 -20 -20 -20 -20 -20 -20 -20 -20 -20 -20 -20 -20 -20 -20 -20 -20 -20 -20 -20 -20 -20 -20
-20 -20 -18 -20 -20 -20 -20 -20 -20 -20 -20 -20 -20 -20 -20 -20 -20 -20 -20 -20 -20 -20 -20 -20 -20 -20 -20 -20 -20 -20 -20 -20 -20 -20 -20 -20 -20 -20 -20 -20 -20 -20 -20 -20 -20 -20 -20
-20 1 -16 -20 -14 -20 -20 -20 -20 -20 -20 -20 -20 -20 -20 -20 -20 -20 -20 -20 -20 -20 -20 -20 -20 -20 -20 -20 -20 -20 -20 -20 -20 -20 -20 -20 -20 -20 -20 -20 -20 -20 -20 -20 -20 -20 -20
3 -18 -18 -14 -10 -20 -20 -20 -20 -20 -20 -20 -20 -20 -20 -20 -20 -20 -20 -20 -20 -20 -20 -20 -20 -20 -20 -20 -20 -20 -20 -16 -20 -20 -20 -20 -20 -20 -20 -20 -20 -20 -20 -20 -20 -20 -20
18 20 -8 26 7 -20 -20 -20 -20 -20 -20 -20 -20 -20 -20 -20 -20 -20 -20 -20 -20 -20 -20 -20 -20 -20 -20 -20 -20 -20 -20 -20 -20 -20 -20 -20 -20 -20 -20 -20 -20 -20 -20 -20 -20 -20 -20
-20 -20 -20 -20 -0 -20 -20 -20 -18 -18 -20 -20 -20 -20 -20 -20 -20 -20 -20 -20 -20 -20 -20 -20 -20 -20 -20 -20 -20 -20 -20 -20 -20 -20 -20 -20 -20 -20 -20 -20 -20 -20 -20 -20 -20 -20 -20
-20 -20 -20 -20 -20 -20 -15 -20 -20 -20 -20 -20 -20 -20 -20 -20 -20 -20 -20 -20 -20 -20 -20 -20 -20 -20 -20 -20 -20 -20 -20 -20 -20 -20 -20 -20 -20 -20 -20 -20 -20 -20 -20 -20 -20 -20 -20
-20 -20 -20 -20 -20 -20 -20 -20 -20 -20 -20 -20 -20 -20 -20 -20 -20 -20 -20 -20 -20 -20 -20 -20 -20 -20 -20 -20 -20 -20 -20 -20 -20 -20 -20 -20 -20 -20 -20 -20 -20 -20 -20 -20 -20 -20 -20
-20 -20 -20 -20 -20 -20 -20 -20 -20 -20 -20 -20 -20 -20 -20 -20 -20 -20 -20 -20 -20 -20 -20 -20 -20 -20 -20 -20 -20 -20 -20 -20 -20 -20 -20 -20 -20 -20 -20 -20 -20 -20 -20 -20 -20 -20 -20
11 -20 -17 -20 -20 -20 -20 -20 -20 -20 -20 -20 -20 -20 -20 -20 -20 -20 -20 -20 -20 -20 -20 -20 -20 -20 -20 -20 -20 -20 -20 -20 -20 -20 -20 -20 -20 -20 -20 -20 -20 -20 -20 -20 -20 -20 -20
6 -20 -20 -20 -20 -20 -20 -20 -20 -20 -20 -20 -20 -20 -20 -20 -20 -20 -20 -20 -20 -20 -20 -20 -20 -20 -20 -20 -20 -20 -20 -20 -20 -20 -20 -20 -20 -20 -20 -20 -20 -20 -20 -20 -20 -20 -20
-20 -20 -20 -20 -20 -20 -20 -20 -20 -20 -20 -20 -20 -20 -20 -20 -20 -20 -20 -20 -20 -20 -20 -20 -20 -20 -20 -20 -20 -20 -20 -20 -20 -20 -20 -20 -20 -20 -20 -20 -20 -20 -20 -20 -20 -20 -20
-20 -20 -20 -20 -20 -20 -20 -20 -20 -20 -20 -20 -20 -20 -20 -20 -20 -20 -20 -20 -20 -20 -20 -20 -20 -20 -20 -20 -20 -20 -20 -20 -20 -20 -20 -20 -20 -20 -20 -20 -20 -20 -20 -14 -20 -18 -13
-20 -20 -20 -20 -20 -20 -20 -20 -20 -20 -20 -20 -20 -20 -20 -20 -20 -20 -20 -20 -20 -20 -20 -20 -20 -20 -20 -20 -20 -20 -20 -20 -20 -20 -20 -20 -20 -20 -20 -20 -20 -20 2 15 6 -20 -20
-20 -20 -20 -20 -20 -20 -20 -20 -20 -20 -20 -20 -20 -20 -20 -20 -20 -20 -20 -20 -20 -20 -20 -20 -20 -20 -20 -20 -20 -20 -20 -20 -20 -20 -20 -20 -20 -20 -20 -20 -20 -20 -14 -4 3 16 -11
-20 -20 -20 -20 -20 -20 -20 -20 -20 -20 -20 -20 -20 -20 -20 -20 -20 -20 -20 -20 -20 -20 -20 -20 -20 -20 -20 -20 -20 -20 -20 -20 -20 -20 -20 -20 -20 -20 -20 -20 -20 -20 -20 -16 23 28 13
-20 -20 -20 -20 -20 -20 -20 -20 -20 -20 -20 -20 -20 -20 -20 -20 -20 -20 -20 -20 -20 -20 -20 -20 -20 -20 -20 -20 -20 -20 -20 -20 -20 -20 -20 -20 -20 -20 -20 -20 -20 -20 15 -20 -14 10 30
-20 -20 -20 -20 -20 -20 -20 -20 -20 -20 -20 -20 -20 -20 -20 -20 -20 -20 -20 -20 -20 -20 -20 -20 -20 -20 -20 -20 -20 -20 -20 -20 -20 -20 -20 -20 -20 -20 -20 -20 -20 -20 -19 18 7 9 13
-20 -20 -20 -20 -20 -20 -20 -20 -20 -20 -20 -20 -20 -20 -20 -20 -20 -20 -20 -20 -20 -20 -20 -20 -20 -20 -20 -20 -20 -20 -20 -20 -20 -20 -20 -20 -20 -20 -20 -20 -20 -20 -20 -20 -20 7 14
-20 -20 -20 -20 -20 -20 -20 -20 -20 -20 -20 -20 -20 -20 -20 -20 -20 -20 -20 -20 -20 -20 -20 -20 -20 -20 -20 -20 -20 -20 -20 -20 -20 -20 -20 -20 -20 -20 -20 -20 -20 -20 -20 1 8 -11 -18
-20 -20 -20 -20 -20 -20 -20 -20 -20 -20 -20 -20 -20 -20 -20 -20 -20 -20 -20 -20 -20 -20 -20 -20 -20 -20 -20 -20 -20 -20 -20 -20 -20 -20 -20 -20 -20 -20 -20 -20 -20 -20 -20 -20 -20 -10 -18
-20 -20 -20 -20 -20 -20 -20 -20 -20 -20 -20 -20 -20 -20 -20 -20 -20 -20 -20 -20 -20 -20 -20 -20 -20 -20 -20 -20 -20 -20 -20 -20 -20 -20 -20 -20 -20 -20 -20 -20 -20 -20 -20 -20 -20 -20 -20
-20 -20 -20 -20 -20 -20 -20 -20 -20 -20 -20 -20 -20 -20 -20 -20 -20 -20 -20 -20 -20 -20 -20 -20 -20 -20 -20 -20 -20 -20 -20 -20 -20 -20 -20 -20 -20 -20 -20 -20 -20 -20 -20 -20 -20 -20 -20
-20 -10 -20 -20 -20 -20 -20 -20 -20 -20 -20 -20 -20 -20 -20 -20 -20 -20 -20 -20 -20 -20 -20 -20 -20 -20 -20 -20 -20 -20 -20 -20 -20 -20 -20 -20 -20 -20 -20 -20 -19 -20 -20 -20 -20 -20 -20
-20 -20 -20 -15 9 -2 -20 -20 -20 -20 -20 -20 -20 -20 -17 4 -14 -20 -20 -20 -20 -20 -20 -20 -20 -20 -20 -20 -20 -15 -20 -20 -20 -20 -20 -20 -20 -20 -5 -20 -20 -20 -20 -20 -20 -20 -20
-20 -20 -20 -20 -20 -20 -20 -20 -20 -20 -20 -20 -20 -20 -1 -1 -20 -20 -17 -20 -20 -20 -20 -20 -20 -20 -20 -20 -19 -10 -2 -9 -9 -20 -20 -20 -20 4 -20 9 -7 -20 -20 -20 -20 -20 -20
-20 -20 -20 -20 -20 -20 -20 -20 -20 -20 -20 -20 -20 -20 -15 -19 -20 -20 -20 -20 -20 -20 -20 -20 -20 -20 -20 -20 -6 -2 -0 -9 8 -20 -20 -20 -20 5 -2 9 -14 -20 -20 -20 -20 -20 -20
-19 -1 -20 -20 -20 -20 -20 -20 -20 -20 -20 -20 -20 -20 -20 -8 -20 -20 -20 -20 -20 -20 -20 -20 -16 -20 -20 -20 -20 -20 -4 11 -5 -20 -3 -20 -0 -20 -19 13 -2 -20 -20 -16 -20 -20 -20
-20 -20 -20 -20 -20 -20 -20 -20 -18 3 12 18 8 -20 -20 18 2 -20 -20 -20 -20 -20 -20 -20 -18 -20 -0 -11 -17 10 4 8 7 9 -18 -1 -16 -17 16 -7 -20 -20 -20 -20 -20 -20 -20